Bishopton, United Kingdom

5:27 AM GMT on February 24, 2017 (GMT +0000)
Glasgow

Weather History for EGPF - November, 2011

Change the Weather History Date:

Saturday, November 19, 2011

  Actual Average Record
Temperature  
Mean Temperature 52 °F -  
Max Temperature 55 °F 44 °F 55 °F (2003)
Min Temperature 50 °F 34 °F 19 °F (2005)
Degree Days  
Heating Degree Days 12    
Growing Degree Days 2 (Base 50)    
Moisture  
Dew Point 47 °F    
Average Humidity 85    
Maximum Humidity 94    
Minimum Humidity 77    
Precipitation  
Precipitation 0.00 in - - ()
Sea Level Pressure  
Sea Level Pressure 29.92 in    
Wind  
Wind Speed 5 mph ()    
Max Wind Speed 12 mph    
Max Gust Speed -    
Visibility 6.2 miles    
Events      
Averages and records for this station are not official NWS values.
T = Trace of Precipitation, MM = Missing Value Source: Averaged Metar Reports

Daily Weather History Graph

Daily Weather History Graph

Search for Another Location

Airport or City:

Trip Planner

Search our weather history database for the weather conditions in past years. The results will help you decide how hot, cold, wet, or windy it might be!

Date:

Astronomy

Nov. 19, 2011 Rise Set
Actual Time 8:00 AM GMT 4:04 PM GMT
Civil Twilight 7:18 AM GMT 4:47 PM GMT
Nautical Twilight 6:31 AM GMT 5:33 PM GMT
Astronomical Twilight 5:48 AM GMT 6:17 PM GMT
Moon No Moon Rise 1:17 PM GMT (11/19)
Length of Visible Light 9h 29m
Length of Day
8h 03m
Last Quarter, 40% of the Moon is Illuminated
Nov 19
Last Quarter
Nov 25
New
Dec 2
First Quarter
Dec 10
Full
Dec 18
Last Quarter

Hourly Weather History & Observations

Time (GMT) Temp. Dew Point Humidity Pressure Visibility Wind Dir Wind Speed Gust Speed Precip Events Conditions
12:20 AM 55.4 °F 50.0 °F 82% 29.83 in 6.2 mi East 6.9 mph - N/A   Mostly Cloudy
12:50 AM 53.6 °F 50.0 °F 88% 29.86 in 6.2 mi Variable 3.5 mph - N/A   Mostly Cloudy
1:20 AM 53.6 °F 48.2 °F 82% 29.86 in 6.2 mi East 5.8 mph - N/A   Mostly Cloudy
1:50 AM 53.6 °F 48.2 °F 82% 29.86 in 6.2 mi East 6.9 mph - N/A   Mostly Cloudy
2:20 AM 53.6 °F 48.2 °F 82% 29.86 in 6.2 mi East 5.8 mph - N/A   Overcast
2:50 AM 53.6 °F 48.2 °F 82% 29.86 in 6.2 mi East 8.1 mph - N/A   Overcast
3:20 AM 51.8 °F 48.2 °F 88% 29.86 in 6.2 mi SE 6.9 mph - N/A   Overcast
3:50 AM 53.6 °F 48.2 °F 82% 29.86 in 6.2 mi SE 8.1 mph - N/A   Mostly Cloudy
4:20 AM 51.8 °F 48.2 °F 88% 29.86 in 6.2 mi SE 6.9 mph - N/A   Mostly Cloudy
4:50 AM 51.8 °F 48.2 °F 88% 29.86 in 6.2 mi SE 6.9 mph - N/A   Partly Cloudy
5:20 AM 51.8 °F 48.2 °F 88% 29.86 in 6.2 mi ESE 6.9 mph - N/A   Partly Cloudy
5:50 AM 51.8 °F 48.2 °F 88% 29.86 in 6.2 mi East 4.6 mph - N/A   Partly Cloudy
6:20 AM 51.8 °F 48.2 °F 88% 29.86 in 6.2 mi ESE 6.9 mph - N/A   Scattered Clouds
6:50 AM 51.8 °F 46.4 °F 82% 29.89 in 6.2 mi East 4.6 mph - N/A   Partly Cloudy
7:20 AM 51.8 °F 46.4 °F 82% 29.89 in 6.2 mi ESE 6.9 mph - N/A   Scattered Clouds
7:50 AM 51.8 °F 46.4 °F 82% 29.89 in 6.2 mi East 4.6 mph - N/A   Scattered Clouds
8:20 AM 50.0 °F 46.4 °F 87% 29.89 in 6.2 mi ENE 4.6 mph - N/A   Scattered Clouds
8:50 AM 50.0 °F 46.4 °F 87% 29.89 in 6.2 mi ENE 5.8 mph - N/A   Partly Cloudy
9:20 AM 50.0 °F 46.4 °F 87% 29.92 in 6.2 mi ENE 5.8 mph - N/A   Partly Cloudy
9:50 AM 51.8 °F 46.4 °F 82% 29.92 in 6.2 mi Variable 3.5 mph - N/A   Scattered Clouds
10:20 AM 51.8 °F 46.4 °F 82% 29.92 in 6.2 mi Variable 3.5 mph - N/A   Scattered Clouds
10:50 AM 51.8 °F 46.4 °F 82% 29.92 in 6.2 mi Variable 3.5 mph - N/A   Scattered Clouds
11:20 AM 53.6 °F 46.4 °F 77% 29.92 in 6.2 mi SSE 5.8 mph - N/A   Mostly Cloudy
11:50 AM 53.6 °F 46.4 °F 77% 29.92 in 6.2 mi South 9.2 mph - N/A   Partly Cloudy
12:20 PM 53.6 °F 46.4 °F 77% 29.92 in 5.6 mi South 11.5 mph - N/A   Partly Cloudy
12:50 PM 53.6 °F 46.4 °F 77% 29.92 in 6.2 mi SSE 10.4 mph - N/A   Mostly Cloudy
1:20 PM 53.6 °F 46.4 °F 77% 29.92 in 6.2 mi SE 8.1 mph - N/A   Mostly Cloudy
1:50 PM 53.6 °F 46.4 °F 77% 29.92 in 6.2 mi SSE 8.1 mph - N/A   Mostly Cloudy
2:20 PM 53.6 °F 48.2 °F 82% 29.92 in 6.2 mi SE 6.9 mph - N/A   Overcast
2:50 PM 51.8 °F 48.2 °F 88% 29.92 in 6.2 mi SSE 8.1 mph - N/A   Overcast
3:20 PM 51.8 °F 46.4 °F 82% 29.95 in 6.2 mi SE 9.2 mph - N/A   Mostly Cloudy
3:50 PM 51.8 °F 46.4 °F 82% 29.92 in 6.2 mi SE 5.8 mph - N/A   Mostly Cloudy
4:20 PM 51.8 °F 46.4 °F 82% 29.95 in 6.2 mi Variable 3.5 mph - N/A   Mostly Cloudy
4:50 PM 50.0 °F 46.4 °F 87% 29.95 in 6.2 mi Calm Calm - N/A   Mostly Cloudy
5:20 PM 51.8 °F 48.2 °F 88% 29.95 in 6.2 mi SSE 6.9 mph - N/A   Mostly Cloudy
5:50 PM 51.8 °F 46.4 °F 82% 29.95 in 6.2 mi Variable 2.3 mph - N/A   Mostly Cloudy
6:20 PM 50.0 °F 46.4 °F 87% 29.95 in 6.2 mi East 3.5 mph - N/A   Overcast
6:50 PM 50.0 °F 46.4 °F 87% 29.95 in 6.2 mi Variable 3.5 mph - N/A   Mostly Cloudy
7:20 PM 51.8 °F 46.4 °F 82% 29.95 in 6.2 mi ENE 4.6 mph - N/A   Mostly Cloudy
7:50 PM 51.8 °F 48.2 °F 88% 29.98 in 6.2 mi East 4.6 mph - N/A   Mostly Cloudy
8:20 PM 51.8 °F 48.2 °F 88% 29.98 in 6.2 mi ENE 4.6 mph - N/A   Overcast
8:50 PM 51.8 °F 48.2 °F 88% 29.98 in 6.2 mi ENE 4.6 mph - N/A   Mostly Cloudy
9:20 PM 50.0 °F 48.2 °F 94% 29.98 in 6.2 mi NE 4.6 mph - N/A   Overcast
9:50 PM 50.0 °F 46.4 °F 87% 29.98 in 6.2 mi ENE 5.8 mph - N/A   Mostly Cloudy
10:20 PM 50.0 °F 48.2 °F 94% 29.98 in 5.6 mi NE 5.8 mph - N/A   Mostly Cloudy
10:50 PM 50.0 °F 48.2 °F 94% 29.98 in 5.6 mi NE 3.5 mph - N/A   Mostly Cloudy
11:20 PM 50.0 °F 48.2 °F 94% 29.98 in 6.2 mi NE 4.6 mph - N/A   Mostly Cloudy
11:50 PM 51.8 °F 48.2 °F 88% 29.98 in 6.2 mi East 5.8 mph - N/A   Mostly Cloudy